Date String (YYYY-MM-DD hh:mm:ss) UTC,Instrument flags,Ambient pressure (hPa),Sample flow (lpm),Bypass flow (lpm),Sample temperature (°C),Ambient temperature (°C),ASC tube jacket temperature (°C),LED temperature (°C),Box temperature (°C),Sample RH (%),Span deviation,Mass concentration (μg/m³),Mass concentration (μg/m³),Mass concentration (μg/m³)
DateTimeUTC,F1_M11,P_M11,Q1_M11,Q2_M11,T1_M11,T2_M11,T3_M11,T4_M11,T5_M11,U1_M11,ZSPAN_M11,X0_M11,X2_M11,X1_M11
2022-09-18 00:00:00,,0821.8,5.00,0.00,29.7,28.0,00.0,38.3,31.5,23.0,0000.0,0012.76,0004.81,0004.01
2022-09-18 00:01:00,,0822.0,5.00,0.00,29.7,28.1,00.0,38.3,31.5,23.1,0000.0,0013.10,0004.82,0004.03
2022-09-18 00:02:00,,0822.0,4.99,0.00,29.7,28.3,00.0,38.4,31.5,22.9,0000.0,0012.81,0004.83,0004.05
2022-09-18 00:03:00,,0821.9,4.99,0.00,29.7,28.4,00.0,38.4,31.6,22.9,0000.0,0012.86,0004.86,0004.06
2022-09-18 00:04:00,,0822.0,5.02,0.00,29.8,28.6,00.0,38.4,31.7,22.9,0000.0,0013.16,0004.92,0004.07
2022-09-18 00:05:00,,0822.0,5.00,0.00,29.8,28.7,00.0,38.4,31.8,22.9,0000.0,0012.87,0004.96,0004.08
2022-09-18 00:06:00,,0822.1,5.00,0.00,29.8,28.8,00.0,38.5,31.8,22.8,0000.0,0012.34,0004.89,0004.07
2022-09-18 00:07:00,,0822.1,5.01,0.00,29.9,28.8,00.0,38.5,31.9,22.7,0000.0,0012.14,0004.84,0004.06
2022-09-18 00:08:00,,0822.0,5.00,0.00,29.9,27.6,00.0,38.5,31.8,22.7,0000.0,0011.71,0004.81,0004.07
2022-09-18 00:09:00,,0822.0,5.00,0.00,29.8,26.4,00.0,38.4,31.6,22.7,0000.0,0011.22,0004.81,0004.07
2022-09-18 00:10:00,,0822.0,4.99,0.00,29.8,26.2,00.0,38.4,31.6,22.6,0000.0,0011.06,0004.78,0004.07
2022-09-18 00:11:00,,0821.9,5.01,0.00,29.7,26.5,00.0,38.4,31.4,22.5,0000.0,0012.00,0004.76,0004.07
2022-09-18 00:12:00,,0822.0,5.00,0.00,29.6,26.8,00.0,38.4,31.3,22.3,0000.0,0011.72,0004.80,0004.08
2022-09-18 00:13:00,,0822.1,5.01,0.00,29.6,27.2,00.0,38.3,31.3,22.4,0000.0,0011.82,0004.83,0004.08
2022-09-18 00:14:00,,0822.2,5.00,0.00,29.6,27.5,00.0,38.3,31.4,22.2,0000.0,0012.47,0004.85,0004.08
2022-09-18 00:15:00,,0822.0,4.99,0.00,29.6,27.8,00.0,38.3,31.5,22.2,0000.0,0012.92,0004.84,0004.08
2022-09-18 00:16:00,,0822.2,5.00,0.00,29.6,28.1,00.0,38.3,31.5,22.4,0000.0,0013.57,0004.87,0004.09
2022-09-18 00:17:00,,0822.2,5.01,0.00,29.7,28.2,00.0,38.3,31.5,22.3,0000.0,0013.36,0004.93,0004.11
2022-09-18 00:18:00,,0821.9,4.99,0.00,29.7,28.3,00.0,38.4,31.6,22.2,0000.0,0013.15,0004.95,0004.12
2022-09-18 00:19:00,,0821.9,5.01,0.00,29.7,28.5,00.0,38.4,31.7,22.3,0000.0,0013.06,0004.93,0004.11
2022-09-18 00:20:00,,0821.8,4.99,0.00,29.8,28.6,00.0,38.4,31.7,22.3,0000.0,0012.82,0004.99,0004.11
2022-09-18 00:21:00,,0822.2,5.00,0.00,29.8,28.7,00.0,38.4,31.8,22.3,0000.0,0013.26,0005.01,0004.11
2022-09-18 00:22:00,,0822.0,5.00,0.00,29.8,28.8,00.0,38.4,31.8,22.3,0000.0,0012.79,0005.01,0004.11
2022-09-18 00:23:00,,0822.0,4.99,0.00,29.9,28.8,00.0,38.5,31.8,22.3,0000.0,0012.85,0004.99,0004.10
2022-09-18 00:24:00,,0821.9,5.00,0.00,29.9,27.6,00.0,38.5,31.8,22.3,0000.0,0013.72,0005.00,0004.11
2022-09-18 00:25:00,,0821.9,5.00,0.00,29.9,26.3,00.0,38.4,31.7,22.4,0000.0,0013.71,0005.00,0004.12
2022-09-18 00:26:00,,0822.0,4.99,0.00,29.8,26.2,00.0,38.4,31.6,22.5,0000.0,0013.11,0004.97,0004.13
2022-09-18 00:27:00,,0822.1,5.00,0.00,29.7,26.5,00.0,38.4,31.3,22.6,0000.0,0012.30,0004.96,0004.13
2022-09-18 00:28:00,,0822.1,4.99,0.00,29.6,26.8,00.0,38.3,31.3,22.8,0000.0,0012.55,0004.93,0004.12
2022-09-18 00:29:00,,0821.9,5.00,0.00,29.6,27.2,00.0,38.3,31.3,22.8,0000.0,0012.73,0004.91,0004.11
2022-09-18 00:30:00,,0822.0,5.00,0.00,29.6,27.5,00.0,38.3,31.4,22.6,0000.0,0012.81,0004.92,0004.10
2022-09-18 00:31:00,,0822.0,5.01,0.00,29.6,27.8,00.0,38.3,31.4,22.5,0000.0,0012.81,0004.90,0004.10
2022-09-18 00:32:00,,0821.9,4.99,0.00,29.6,28.0,00.0,38.3,31.4,22.4,0000.0,0012.43,0004.91,0004.11
2022-09-18 00:33:00,,0821.9,5.00,0.00,29.6,28.1,00.0,38.3,31.5,22.4,0000.0,0011.77,0004.92,0004.10
2022-09-18 00:34:00,,0821.8,4.99,0.00,29.7,28.3,00.0,38.3,31.5,22.3,0000.0,0010.93,0004.90,0004.10
2022-09-18 00:35:00,,0821.8,5.01,0.00,29.7,28.4,00.0,38.4,31.6,22.2,0000.0,0009.92,0004.89,0004.09
2022-09-18 00:36:00,,0821.7,4.99,0.00,29.7,28.6,00.0,38.4,31.7,22.1,0000.0,0009.41,0004.87,0004.08
2022-09-18 00:37:00,,0821.8,5.00,0.00,29.8,28.7,00.0,38.4,31.7,22.0,0000.0,0009.38,0004.88,0004.07
2022-09-18 00:38:00,,0821.8,5.02,0.00,29.8,28.8,00.0,38.4,31.8,22.1,0000.0,0009.48,0004.88,0004.05
2022-09-18 00:39:00,,0821.8,5.00,0.00,29.8,28.8,00.0,38.5,31.8,22.0,0000.0,0009.43,0004.89,0004.05
2022-09-18 00:40:00,,0821.8,4.99,0.00,29.9,28.8,00.0,38.5,31.8,21.9,0000.0,0009.30,0004.91,0004.06
2022-09-18 00:41:00,,0821.7,5.00,0.00,29.9,27.7,00.0,38.5,31.8,21.9,0000.0,0009.79,0004.95,0004.06
2022-09-18 00:42:00,,0821.7,5.00,0.00,29.9,26.9,00.0,38.4,31.7,22.0,0000.0,0009.78,0004.91,0004.06
2022-09-18 00:43:00,,0821.7,5.01,0.00,29.8,26.9,00.0,38.4,31.6,22.0,0000.0,0010.19,0004.84,0004.06
2022-09-18 00:44:00,,0821.7,5.00,0.00,29.8,27.2,00.0,38.4,31.5,22.1,0000.0,0010.58,0004.84,0004.07
2022-09-18 00:45:00,,0821.7,5.01,0.00,29.7,27.5,00.0,38.4,31.5,22.2,0000.0,0011.59,0004.84,0004.06
2022-09-18 00:46:00,,0821.7,5.00,0.00,29.7,27.8,00.0,38.4,31.5,22.2,0000.0,0011.95,0004.83,0004.05
2022-09-18 00:47:00,,0821.7,5.00,0.00,29.7,28.0,00.0,38.4,31.6,22.3,0000.0,0012.31,0004.82,0004.05
2022-09-18 00:48:00,,0821.7,5.01,0.00,29.8,28.2,00.0,38.4,31.6,22.3,0000.0,0012.67,0004.83,0004.04
2022-09-18 00:49:00,,0821.7,4.98,0.00,29.8,28.4,00.0,38.4,31.7,22.2,0000.0,0013.35,0004.81,0004.04
2022-09-18 00:50:00,,0821.7,5.01,0.00,29.8,28.5,00.0,38.5,31.7,22.1,0000.0,0014.27,0004.79,0004.04
2022-09-18 00:51:00,,0821.8,5.00,0.00,29.8,28.6,00.0,38.5,31.8,22.1,0000.0,0014.37,0004.76,0004.03
2022-09-18 00:52:00,,0821.8,5.00,0.00,29.9,28.8,00.0,38.5,31.8,22.0,0000.0,0013.97,0004.76,0004.04
2022-09-18 00:53:00,,0821.8,4.99,0.00,29.9,28.9,00.0,38.5,31.9,21.9,0000.0,0014.17,0004.77,0004.04
2022-09-18 00:54:00,,0821.9,5.01,0.00,30.0,28.9,00.0,38.6,31.9,21.9,0000.0,0013.86,0004.78,0004.04
2022-09-18 00:55:00,,0821.9,4.99,0.00,30.0,28.3,00.0,38.6,31.9,21.9,0000.0,0013.45,0004.80,0004.04
2022-09-18 00:56:00,,0821.9,5.01,0.00,29.9,26.8,00.0,38.5,31.8,21.8,0000.0,0013.00,0004.79,0004.03
2022-09-18 00:57:00,,0822.2,5.00,0.00,29.9,26.2,00.0,38.5,31.7,21.8,0000.0,0012.72,0004.79,0004.03
2022-09-18 00:58:00,,0822.2,5.00,0.00,29.8,26.3,00.0,38.4,31.5,21.6,0000.0,0012.50,0004.81,0004.04
2022-09-18 00:59:00,,0821.9,5.00,0.00,29.7,26.6,00.0,38.4,31.3,21.8,0000.0,0012.63,0004.82,0004.03
